Hourly Weather Dabrowa

Today, 17 April, Saturday

Time Temperature Precipitation Wind Pressure Humidity
00:00 +3°C° 0.3 mm 3 mps 759 mmHg 89%
01:00 +2°C° 0.3 mm 3 mps 759 mmHg 95%
02:00 +2°C° 0.3 mm 3 mps 759 mmHg 95%
03:00 +2°C° 0.3 mm 3 mps 759 mmHg 95%
04:00 +2°C° 0.3 mm 3 mps 759 mmHg 95%
05:00 +3°C° 0.1 mm 2 mps 759 mmHg 95%
06:00 +3°C° 0.1 mm 2 mps 759 mmHg 94%
07:00 +4°C° 0.1 mm 2 mps 759 mmHg 93%
08:00 +4°C° 0 mm 2 mps 759 mmHg 91%
09:00 +5°C° 0 mm 2 mps 759 mmHg 89%
10:00 +6°C° 0 mm 2 mps 759 mmHg 87%
11:00 +6°C° 0.2 mm 2 mps 759 mmHg 88%
12:00 +6°C° 0.2 mm 2 mps 759 mmHg 89%
13:00 +7°C° 0.2 mm 2 mps 759 mmHg 90%
14:00 +7°C° 0.1 mm 2 mps 758 mmHg 89%
15:00 +8°C° 0.1 mm 2 mps 758 mmHg 88%
16:00 +9°C° 0.1 mm 2 mps 758 mmHg 88%
17:00 +8°C° 0.2 mm 2 mps 758 mmHg 90%
18:00 +7°C° 0.2 mm 2 mps 757 mmHg 93%
19:00 +7°C° 0.2 mm 2 mps 757 mmHg 96%
20:00 +6°C° 0.2 mm 2 mps 757 mmHg 96%
21:00 +6°C° 0.2 mm 2 mps 758 mmHg 97%
22:00 +6°C° 0.2 mm 1 mps 758 mmHg 98%
23:00 +6°C° 0 mm 1 mps 758 mmHg 98%

Tomorrow, 18 April, Sunday

Time Temperature Precipitation Wind Pressure Humidity
00:00 +6°C° 0 mm 1 mps 758 mmHg 98%
01:00 +6°C° 0 mm 1 mps 758 mmHg 98%
02:00 +6°C° 0 mm 1 mps 758 mmHg 97%
03:00 +6°C° 0 mm 1 mps 758 mmHg 96%
04:00 +5°C° 0 mm 0 mps 758 mmHg 96%
05:00 +6°C° 0 mm 0 mps 758 mmHg 94%
06:00 +7°C° 0 mm 1 mps 758 mmHg 92%
07:00 +8°C° 0 mm 1 mps 758 mmHg 91%
08:00 +9°C° 0 mm 1 mps 758 mmHg 87%
09:00 +10°C° 0 mm 1 mps 758 mmHg 84%
10:00 +11°C° 0 mm 1 mps 758 mmHg 80%
11:00 +11°C° 0 mm 1 mps 758 mmHg 78%
12:00 +11°C° 0 mm 1 mps 758 mmHg 77%
13:00 +12°C° 0 mm 1 mps 758 mmHg 75%
14:00 +12°C° 0.3 mm 1 mps 757 mmHg 73%
15:00 +13°C° 0.3 mm 2 mps 757 mmHg 71%
16:00 +13°C° 0.3 mm 2 mps 757 mmHg 70%
17:00 +12°C° 0.1 mm 2 mps 757 mmHg 76%
18:00 +10°C° 0.1 mm 2 mps 757 mmHg 82%
19:00 +10°C° 0.1 mm 1 mps 757 mmHg 88%
20:00 +9°C° 0 mm 1 mps 758 mmHg 89%
21:00 +8°C° 0 mm 1 mps 758 mmHg 90%
22:00 +8°C° 0 mm 1 mps 758 mmHg 91%
23:00 +8°C° 0 mm 1 mps 758 mmHg 91%

Day after tomorrow, 19 April, Monday

Time Temperature Precipitation Wind Pressure Humidity
00:00 +7°C° 0 mm 1 mps 758 mmHg 91%
01:00 +7°C° 0 mm 1 mps 758 mmHg 92%
02:00 +7°C° 0 mm 1 mps 757 mmHg 93%
03:00 +7°C° 0 mm 1 mps 757 mmHg 94%
04:00 +8°C° 0 mm 1 mps 757 mmHg 95%
05:00 +8°C° 0.1 mm 1 mps 757 mmHg 94%
06:00 +8°C° 0.1 mm 2 mps 757 mmHg 94%
07:00 +9°C° 0.1 mm 2 mps 757 mmHg 94%
08:00 +10°C° 0.2 mm 3 mps 757 mmHg 84%
09:00 +12°C° 0.2 mm 3 mps 757 mmHg 75%
10:00 +13°C° 0.2 mm 4 mps 756 mmHg 66%
11:00 +14°C° 0 mm 4 mps 756 mmHg 60%
12:00 +15°C° 0 mm 4 mps 756 mmHg 54%
13:00 +15°C° 0 mm 5 mps 756 mmHg 48%
14:00 +15°C° 0 mm 4 mps 756 mmHg 51%
15:00 +14°C° 0 mm 4 mps 755 mmHg 54%
16:00 +14°C° 0 mm 4 mps 755 mmHg 57%
17:00 +12°C° 0 mm 3 mps 755 mmHg 64%
18:00 +11°C° 0 mm 3 mps 755 mmHg 70%
19:00 +10°C° 0 mm 2 mps 755 mmHg 77%
20:00 +9°C° 0 mm 2 mps 755 mmHg 81%
21:00 +8°C° 0 mm 2 mps 755 mmHg 86%
22:00 +7°C° 0 mm 2 mps 755 mmHg 90%
23:00 +7°C° 0 mm 2 mps 755 mmHg 90%

20 April, Tuesday

Time Temperature Precipitation Wind Pressure Humidity
00:00 +8°C° 0 mm 2 mps 755 mmHg 89%
01:00 +8°C° 0 mm 2 mps 755 mmHg 89%
02:00 +7°C° 0.1 mm 2 mps 755 mmHg 91%
03:00 +7°C° 0.1 mm 2 mps 755 mmHg 92%
04:00 +7°C° 0.1 mm 2 mps 755 mmHg 94%
05:00 +7°C° 0 mm 2 mps 755 mmHg 90%
06:00 +8°C° 0 mm 2 mps 755 mmHg 87%
07:00 +8°C° 0 mm 2 mps 755 mmHg 84%
08:00 +9°C° 0.2 mm 2 mps 755 mmHg 78%
09:00 +12°C° 0.2 mm 2 mps 754 mmHg 72%
10:00 +13°C° 0.2 mm 2 mps 754 mmHg 65%
11:00 +13°C° 0.2 mm 2 mps 754 mmHg 62%
12:00 +14°C° 0.2 mm 2 mps 754 mmHg 59%
13:00 +14°C° 0.2 mm 2 mps 753 mmHg 56%
14:00 +14°C° 0.1 mm 2 mps 753 mmHg 56%
15:00 +14°C° 0.1 mm 2 mps 753 mmHg 56%
16:00 +14°C° 0.1 mm 2 mps 753 mmHg 56%
17:00 +13°C° 0 mm 2 mps 753 mmHg 62%
18:00 +10°C° 0 mm 2 mps 753 mmHg 68%
19:00 +10°C° 0 mm 1 mps 753 mmHg 75%
20:00 +9°C° 0 mm 1 mps 753 mmHg 78%
21:00 +8°C° 0 mm 1 mps 753 mmHg 82%
22:00 +7°C° 0 mm 1 mps 753 mmHg 85%
23:00 +7°C° 0 mm 1 mps 753 mmHg 87%

21 April, Wednesday

Time Temperature Precipitation Wind Pressure Humidity
00:00 +7°C° 0 mm 1 mps 753 mmHg 88%
01:00 +6°C° 0 mm 1 mps 753 mmHg 89%
02:00 +6°C° 0 mm 1 mps 752 mmHg 90%
03:00 +6°C° 0 mm 1 mps 752 mmHg 91%
04:00 +6°C° 0 mm 1 mps 752 mmHg 91%
05:00 +7°C° 0 mm 1 mps 752 mmHg 88%
06:00 +8°C° 0 mm 1 mps 752 mmHg 85%
07:00 +9°C° 0 mm 1 mps 752 mmHg 81%
08:00 +9°C° 0.2 mm 2 mps 752 mmHg 76%
09:00 +12°C° 0.2 mm 2 mps 752 mmHg 72%
10:00 +13°C° 0.2 mm 2 mps 751 mmHg 67%
11:00 +13°C° 0.3 mm 3 mps 751 mmHg 61%
12:00 +14°C° 0.3 mm 3 mps 751 mmHg 56%
13:00 +16°C° 0.3 mm 3 mps 750 mmHg 50%
14:00 +15°C° 0.1 mm 4 mps 750 mmHg 53%
15:00 +14°C° 0.1 mm 4 mps 750 mmHg 55%
16:00 +14°C° 0.1 mm 4 mps 749 mmHg 58%
17:00 +12°C° 0.2 mm 4 mps 750 mmHg 66%
18:00 +11°C° 0.2 mm 4 mps 750 mmHg 73%
19:00 +10°C° 0.2 mm 4 mps 750 mmHg 81%
20:00 +8°C° 0.5 mm 4 mps 750 mmHg 84%
21:00 +7°C° 0.5 mm 4 mps 751 mmHg 87%
22:00 +6°C° 0.5 mm 5 mps 751 mmHg 90%
23:00 +5°C° 0.1 mm 5 mps 752 mmHg 91%

22 April, Thursday

Time Temperature Precipitation Wind Pressure Humidity
00:00 +3°C° 0.1 mm 5 mps 752 mmHg 91%
01:00 +2°C° 0.1 mm 5 mps 753 mmHg 91%
02:00 +3°C° 0 mm 4 mps 753 mmHg 91%
03:00 +1°C° 0 mm 4 mps 753 mmHg 91%
04:00 0°C° 0 mm 4 mps 754 mmHg 91%
05:00 +1°C° 0 mm 4 mps 754 mmHg 88%
06:00 +1°C° 0 mm 5 mps 755 mmHg 86%
07:00 +1°C° 0 mm 5 mps 755 mmHg 84%
08:00 +2°C° 0.1 mm 5 mps 755 mmHg 74%
09:00 +5°C° 0.1 mm 5 mps 755 mmHg 65%
10:00 +5°C° 0.1 mm 6 mps 755 mmHg 55%
11:00 +7°C° 0.1 mm 6 mps 755 mmHg 51%
12:00 +7°C° 0.1 mm 6 mps 755 mmHg 47%
13:00 +8°C° 0.1 mm 6 mps 755 mmHg 42%
14:00 +8°C° 0 mm 6 mps 755 mmHg 44%
15:00 +8°C° 0 mm 6 mps 755 mmHg 45%
16:00 +8°C° 0 mm 6 mps 755 mmHg 46%
17:00 +7°C° 0.1 mm 5 mps 756 mmHg 60%
18:00 +5°C° 0.1 mm 5 mps 756 mmHg 74%
19:00 +3°C° 0.1 mm 5 mps 756 mmHg 88%
20:00 +4°C° 0.2 mm 4 mps 757 mmHg 89%
21:00 +4°C° 0.2 mm 4 mps 757 mmHg 90%
22:00 +4°C° 0.2 mm 3 mps 757 mmHg 91%
23:00 +3°C° 0.1 mm 3 mps 757 mmHg 92%
Show more